Retour au catalogue

CZ-6A DEB

ActifSSO
NORAD 54472·DEBRIS·🇨🇳 China

Lancé Nov 11, 2022 depuis Taiyuan Satellite Launch Center

Loading…

Prochains Passages (prochaines 24 heures)

TLE

FraisSource: Space-Track

Époque: Sep 14, 2026, 00:17 UTC

1 54472U 22151GY  26257.01249551  .00000061  00000-0  49637-4 0  9992
2 54472  98.7835 276.7578 0005053 136.9356 223.2216 14.19927874198651

Suivez CZ-6A DEB en temps réel avec AllMySat

Download on the App Store